Back to catalog

STARLINK-36175

AliveCommunicationsVLEO
NORAD 67012·PAYLOAD·🇺🇸 United States

Launched Dec 10, 2025 from Vandenberg Space Force Base

Loading…

Next Passes (next 24 hours)

TLE

FreshSource: CelesTrak SupGP

Epoch: Sep 14, 2026, 20:55 UTC

1 67012C 25293K   26257.87201389 -.00049867  00000+0 -41800-2 0  2574
2 67012  70.0018 337.6355 0003654 270.4017   0.5371 14.98345786    17

Track STARLINK-36175 in real time with AllMySat

Download on the App Store